Погода в Семеновке

Украина / Харьковская область     49°38′49″N   37°02′48″E
темп.,
°C
ветер,
м/с
пор.,
м/с
влажн.,
%
обл.,
%
осадки,
мм/ч
давл.,
гПа
погр.,
м
16 июня, ср
ср1600:00+19св348898 1.0 100963
03:00+17в2290100 3.4 101022
06:00+18св2287100 0.1 101029
09:00+21ссв2378100 1.4 1011160
12:00+24юв2358100 2.6 10111122
15:00+26в125438 2.6 10111629
18:00+25св126367 0.4 1011539
21:00+19св33840 0.8 101235
17 июня, чт
чт1700:00+18св3687100 0.0 101390
03:00+17св4993100 0.0 1014173
06:00+18св5129186 0.0 1014335
09:00+22всв797981 0.0 1015598
12:00+24всв6871100 0.0 1016994
15:00+26в7967100 0.7 10161554
18:00+24св711785 0.6 1016886
21:00+21св815815 0.8 1018691
18 июня, пт
пт1800:00+19всв816785 0.0 1019586
03:00+17св715752 0.0 1019448
06:00+16всв614825 0.0 1021512
09:00+19всв811715 0.0 1022790
12:00+23в79623 0.0 10221268
15:00+24всв79593 0.0 10221482
18:00+22всв69680 0.0 10221163
21:00+18всв513801 0.0 1023392
19 июня, сб
сб1900:00+17всв6138367 0.0 1023383
03:00+15всв511835 0.0 1024307
06:00+14всв613804 0.0 1024370
09:00+19в711665 0.0 1024621
12:00+22в810598 0.0 10231022
15:00+24в79585 0.2 10221248
18:00+23в69690 0.0 1022996
21:00+18всв412810 0.0 1022293
20 июня, вс
вс2000:00+16всв512830 0.0 1022246
03:00+15всв512830 0.0 1022244
06:00+15всв513800 0.0 1022289
09:00+21в711605 0.0 1022501
12:00+24в810518 0.0 1020885
15:00+25в7105741 0.0 1019968
18:00+24в71266100 0.0 1019720
21:00+22всв71664100 0.0 1018462